Regional Weather Roundup
Issued by NWS Kansas City/Pleasant Hill, MO

Home | Current Version | Previous Version | Graphics & Text | Print | Product List | Glossary Off
Versions: 1 2 3 4 5 6 7 8 9 10 11 12 13 14 15 16 17 18 19 20 21 22 23 24 25 26 27 28

000
ASUS43 KEAX 300010
RWREAX

WEATHER ROUNDUP FOR EASTERN KANSAS AND NORTHWEST MISSOURI
NATIONAL WEATHER SERVICE KANSAS CITY/PLEASANT HILL MO
700 PM CDT FRI APR 29 2016

KSZ040-057-103>105-MOZ028-029-037-043-300100-
...KANSAS CITY METROPOLITAN AREA...

CITY           SKY/WX    TMP DP  RH WIND       PRES   REMARKS
K.C. INTL      CLOUDY    52  50  93 NE23G33   29.85F
6HR MIN TEMP:  52; 6HR MAX TEMP:  55; 6HR PCP:  0.21;

K.C. DOWNTOWN  CLOUDY    54  51  90 NE14G20   29.86F
6HR MIN TEMP:  54; 6HR MAX TEMP:  58; 6HR PCP:  0.12;

LEES SUMMIT    LGT RAIN  53  51  93 NE17      29.87F
6HR MIN TEMP:  53; 6HR MAX TEMP:  58; 6HR PCP:  0.24;

OLATHE - IXD   LGT RAIN  53  51  93 NE21G30   29.80F
6HR MIN TEMP:  52; 6HR MAX TEMP:  60; 6HR PCP:  0.25;

OLATHE - OJC   LGT RAIN  52  50  93 NE18G26   29.83F
6HR MIN TEMP:  51; 6HR MAX TEMP:  59; 6HR PCP:  0.24;

LAWRENCE       CLOUDY    53  50  89 E18G29    29.82F

$$

MOZ001>008-011>017-020>025-030>033-038>040-044>046-053-054-300100-
...NORTHERN AND CENTRAL MISSOURI...

CITY           SKY/WX    TMP DP  RH WIND       PRES   REMARKS
ST. JOSEPH     CLOUDY    51  48  89 NE14G22   29.90S
6HR MIN TEMP:  51; 6HR MAX TEMP:  55; 6HR PCP:  0.20;

MOSBY          LGT RAIN  52  50  93 NE16G22   29.87F
WARRENSBURG    LGT RAIN  54  52  94 NE13G26   29.85F
WHITEMAN AFB   RAIN      56  56 100 NE14      29.87F
6HR MIN TEMP:  56; 6HR MAX TEMP:  62; 6HR PCP:  0.15;

CLINTON        CLOUDY    57  54  88 NE12      29.87F
SEDALIA        LGT RAIN  60  53  77 NE7       29.94R
6HR MIN TEMP:  60; 6HR MAX TEMP:  64; 6HR PCP:  0.03;

WARSAW         NOT AVBL
CHILLICOTHE      N/A     53  49  86 NE6       30.01R
6HR MIN TEMP:  53; 6HR MAX TEMP:  57; 6HR PCP:  0.04;

KIRKSVILLE     CLOUDY    52  46  80 NE12      29.99F
6HR MIN TEMP:  52; 6HR MAX TEMP:  54; 6HR PCP: TRACE;


$$

MOZ041-047>049-056>058-063>065-088>090-097-300100-
...EASTERN AND SOUTHERN MISSOURI...

CITY           SKY/WX    TMP DP  RH WIND       PRES   REMARKS
ST. LOUIS INTL MOCLDY    64  52  64 E10       29.97S
6HR MIN TEMP:  62; 6HR MAX TEMP:  66;

SPIRIT OF STL  MOCLDY    63  53  70 E8        29.95R
COLUMBIA       CLOUDY    62  52  69 E14       29.92R
JEFFERSON CITY CLOUDY    63  51  65 E9        29.90F
ROLLA          CLOUDY    59  52  77 E12       29.88F
OSAGE BEACH    CLOUDY    61  46  59 E9        29.87S
SPRINGFIELD    CLOUDY    60  57  89 E12       29.77F
BRANSON        LGT RAIN  57  57 100 E15G22    29.78F VSB 1/8
JOPLIN         TSTM      60  58  92 NE10      29.75R FOG
WEST PLAINS    CLOUDY    59  56  89 E10       29.85F

$$

IAZ060-094-KSZ022-034>040-054-083-096-NEZ052-066-093-300100-
...KANSAS...SOUTHEAST NEBRASKA AND IOWA...

CITY           SKY/WX    TMP DP  RH WIND       PRES   REMARKS
TOPEKA         CLOUDY    53  50  89 NE14G25   29.82F
6HR MIN TEMP:  51; 6HR MAX TEMP:  55; 6HR PCP:  0.32;

MANHATTAN      CLOUDY    52  47  83 NE18G25   29.82S
EMPORIA        LGT RAIN  52  50  93 NE20G30   29.74F
CHANUTE        TSTM      57  53  86 E24G35    29.65F
WICHITA        CLOUDY    55  51  86 E15       29.69F
OMAHA          CLOUDY    49  43  80 E9        29.96F
LINCOLN        CLOUDY    48  43  82 NE21      29.94F
FALLS CITY     CLOUDY    51  48  89 E18G26    29.88F
LAMONI         LGT RAIN  48  45  89 NE9       30.01R
DES MOINES     CLOUDY    50  40  68 E13       30.03F

$$





USA.gov is the U.S. government's official web portal to all federal, state and local government web resources and services.